AB8YS Weather Reports


Display with metric or nautical units.
time (UTC)temp
F
wind
direction
speed
MPH
gust
MPH
rain 1hr
in
rain 24hr
in
rain mn
in
humidity
%
barometer
mb
20260502234543 47 266 0.0 1.0 0.00 0.00 0.00 55 1017.9
20260502233039 47 320 0.0 1.0 0.00 0.00 0.00 56 1017.8
20260502231531 47 11 0.0 7.0 0.00 0.00 0.00 55 1017.8
20260502230034 48 46 0.0 2.0 0.00 0.00 0.00 52 1017.7
20260502224529 48 332 0.0 1.0 0.00 0.00 0.00 52 1017.6
20260502223038 48 309 0.0 1.0 0.00 0.00 0.00 50 1017.6
20260502221529 49 28 0.0 1.0 0.00 0.00 0.00 50 1017.6
20260502220028 49 86 0.0 3.0 0.00 0.00 0.00 50 1017.4
20260502214527 49 316 0.0 6.0 0.00 0.00 0.00 48 1017.5
20260502213027 49 62 0.0 1.0 0.00 0.00 0.00 50 1017.4
20260502211531 49 76 0.0 3.0 0.00 0.00 0.00 48 1017.3
20260502210034 50 338 0.0 1.0 0.00 0.00 0.00 50 1017.2
20260502204526 50 316 0.0 5.0 0.00 0.00 0.00 49 1017.2
20260502203025 50 278 0.0 1.0 0.00 0.00 0.00 49 1017.3
20260502201524 50 274 0.0 1.0 0.00 0.00 0.00 49 1017.3
20260502200024 50 300 0.0 4.0 0.00 0.00 0.00 46 1017.4
20260502194531 52 36 0.0 7.0 0.00 0.00 0.00 47 1017.5
20260502193023 51 307 0.0 7.0 0.00 0.00 0.00 48 1017.6
20260502191522 50 90 0.0 1.0 0.00 0.00 0.00 48 1017.7
20260502190028 51 302 0.0 7.0 0.00 0.00 0.00 46 1017.7
20260502184523 51 11 0.0 5.0 0.00 0.00 0.00 48 1018.0
20260502183021 51 312 0.0 3.0 0.00 0.00 0.00 47 1017.9
20260502181529 51 265 0.0 4.0 0.00 0.00 0.00 48 1017.9
20260502163023 51 287 0.0 4.0 0.00 0.00 0.00 46 1018.6
20260502161514 51 74 0.0 5.0 0.00 0.00 0.00 47 1018.7
20260502151524 50 289 0.0 6.0 0.00 0.00 0.00 53 1018.9
20260502123050 45 279 0.0 1.0 0.00 0.00 0.00 68 1018.4
20260502121545 44 19 0.0 1.0 0.00 0.00 0.00 70 1018.4
20260502114534 41 65 0.0 1.0 0.00 0.00 0.00 78 1018.1
20260502113029 38 297 0.0 0.0 0.00 0.00 0.00 87 1018.1
20260502111528 35 297 0.0 0.0 0.00 0.00 0.00 88 1017.9
20260502110028 35 297 0.0 0.0 0.00 0.00 0.00 88 1017.8
20260502104531 35 297 0.0 0.0 0.00 0.00 0.00 89 1017.7
20260502103027 35 297 0.0 0.0 0.00 0.00 0.00 89 1017.7
20260502101526 36 297 0.0 0.0 0.00 0.00 0.00 89 1017.7
20260502091524 36 297 0.0 0.0 0.00 0.00 0.00 93 1017.6
20260502071520 35 297 0.0 0.0 0.00 0.00 0.00 92 1017.4
20260502070017 35 297 0.0 0.0 0.00 0.00 0.00 92 1017.3
20260502064514 36 297 0.0 0.0 0.00 0.00 0.00 92 1017.6
20260502063012 36 297 0.0 0.0 0.00 0.00 0.00 92 1017.8
20260502061516 36 297 0.0 0.0 0.00 0.00 0.00 92 1018.0
20260502060008 36 297 0.0 0.0 0.00 0.00 0.00 92 1018.1
20260502054507 37 297 0.0 0.0 0.00 0.00 0.00 92 1018.1
20260502053007 37 297 0.0 0.0 0.00 0.00 0.00 92 1017.9
20260502051510 37 297 0.0 0.0 0.00 0.00 0.00 91 1017.9
20260502050004 38 297 0.0 0.0 0.00 0.00 0.00 91 1018.1
20260502044500 38 297 0.0 0.0 0.00 0.00 0.00 91 1017.9
20260502043103 38 297 0.0 0.0 0.00 0.00 0.00 90 1017.9
20260502041604 39 297 0.0 0.0 0.00 0.00 0.00 90 1018.0
20260502040157 39 297 0.0 0.0 0.00 0.00 0.00 88 1017.9
20260502034553 40 297 0.0 0.0 0.00 0.00 0.00 88 1017.9
20260502033051 40 297 0.0 0.0 0.00 0.00 0.00 86 1018.0
20260502031550 41 297 0.0 0.0 0.00 0.00 0.00 84 1017.8
20260502030045 41 297 0.0 0.0 0.00 0.00 0.00 82 1017.7
20260502024556 42 297 0.0 0.0 0.00 0.00 0.00 79 1017.7
20260502023045 43 297 0.0 0.0 0.00 0.00 0.00 76 1017.8
20260502021546 44 297 0.0 0.0 0.00 0.00 0.00 75 1017.6
20260502020041 45 297 0.0 0.0 0.00 0.00 0.00 77 1017.4
20260502014539 45 297 0.0 0.0 0.00 0.00 0.00 77 1017.1
20260502013037 45 297 0.0 0.0 0.00 0.00 0.00 75 1016.9
20260502011535 46 297 0.0 0.0 0.00 0.00 0.00 75 1016.5
20260502010032 46 297 0.0 0.0 0.00 0.00 0.00 74 1016.3
20260502004529 47 297 0.0 0.0 0.00 0.00 0.00 72 1015.8
20260502003029 47 297 0.0 0.0 0.00 0.00 0.00 71 1015.5
20260502001529 47 297 0.0 0.0 0.00 0.00 0.00 69 1015.6
20260502000027 48 297 0.0 1.0 0.00 0.00 0.00 67 1015.8